TimeEST,TemperatureF,Dew PointF,Humidity,Sea Level PressureIn,VisibilityMPH,Wind Direction,Wind SpeedMPH,Gust SpeedMPH,PrecipitationIn,Events,Conditions,WindDirDegrees,DateUTC
12:53 AM,75.9,71.1,85,30.03,10.0,SE,10.4,-,N/A,,Scattered Clouds,130,2013-02-23 05:53:00
1:53 AM,75.9,71.1,85,30.01,10.0,SE,10.4,-,N/A,,Clear,140,2013-02-23 06:53:00
2:53 AM,75.9,71.1,85,29.99,10.0,SE,10.4,-,N/A,,Mostly Cloudy,140,2013-02-23 07:53:00
3:53 AM,75.9,71.1,85,29.98,10.0,SE,9.2,-,N/A,,Mostly Cloudy,130,2013-02-23 08:53:00
4:53 AM,75.9,71.1,85,29.97,10.0,SE,9.2,-,N/A,,Mostly Cloudy,140,2013-02-23 09:53:00
5:41 AM,75.2,71.6,89,29.98,10.0,SE,8.1,-,N/A,,Mostly Cloudy,140,2013-02-23 10:41:00
5:53 AM,75.9,72.0,87,29.98,10.0,SE,9.2,-,N/A,,Mostly Cloudy,140,2013-02-23 10:53:00
6:34 AM,75.2,71.6,89,29.98,10.0,SE,10.4,-,N/A,,Scattered Clouds,140,2013-02-23 11:34:00
6:53 AM,75.9,72.0,87,29.98,10.0,SE,10.4,-,N/A,,Partly Cloudy,140,2013-02-23 11:53:00
7:53 AM,77.0,72.0,84,29.99,9.0,SE,10.4,-,N/A,,Clear,140,2013-02-23 12:53:00
8:53 AM,78.1,72.0,81,30.01,9.0,SSE,11.5,-,N/A,,Scattered Clouds,150,2013-02-23 13:53:00
9:53 AM,79.0,72.0,79,30.02,10.0,SSE,10.4,-,N/A,,Clear,160,2013-02-23 14:53:00
10:53 AM,80.1,73.0,79,30.03,10.0,SSE,9.2,-,N/A,,Mostly Cloudy,160,2013-02-23 15:53:00
11:00 AM,80.6,71.6,74,30.02,10.0,SSE,11.5,-,N/A,,Scattered Clouds,160,2013-02-23 16:00:00
11:09 AM,80.6,73.4,79,30.02,10.0,SSE,10.4,-,N/A,,Mostly Cloudy,160,2013-02-23 16:09:00
11:40 AM,80.6,73.4,79,30.02,10.0,South,8.1,-,N/A,,Scattered Clouds,180,2013-02-23 16:40:00
11:53 AM,80.1,73.0,79,30.01,10.0,South,10.4,-,N/A,,Partly Cloudy,180,2013-02-23 16:53:00
12:53 PM,80.1,73.0,79,30.00,8.0,South,8.1,-,N/A,,Clear,180,2013-02-23 17:53:00
1:53 PM,80.1,72.0,76,29.98,10.0,South,9.2,-,N/A,,Clear,180,2013-02-23 18:53:00
2:53 PM,81.0,73.0,77,29.96,10.0,SSE,9.2,-,N/A,,Clear,160,2013-02-23 19:53:00
3:53 PM,80.1,72.0,76,29.95,9.0,SSE,6.9,-,N/A,,Clear,160,2013-02-23 20:53:00
4:53 PM,79.0,72.0,79,29.94,9.0,ESE,3.5,-,N/A,,Clear,120,2013-02-23 21:53:00
5:53 PM,79.0,71.1,77,29.95,9.0,ESE,3.5,-,N/A,,Partly Cloudy,120,2013-02-23 22:53:00
6:53 PM,77.0,71.1,82,29.95,10.0,ESE,4.6,-,N/A,,Clear,110,2013-02-23 23:53:00
7:53 PM,77.0,71.1,82,29.97,10.0,East,5.8,-,N/A,,Clear,100,2013-02-24 00:53:00
8:53 PM,75.9,72.0,87,29.99,9.0,East,4.6,-,N/A,,Clear,100,2013-02-24 01:53:00
9:53 PM,75.9,73.0,91,30.00,9.0,SE,4.6,-,N/A,,Clear,130,2013-02-24 02:53:00
10:53 PM,75.9,73.0,91,29.99,8.0,ESE,3.5,-,N/A,,Clear,120,2013-02-24 03:53:00
11:53 PM,75.9,73.0,91,30.00,9.0,Calm,Calm,-,N/A,,Clear,0,2013-02-24 04:53:00